View from above orbital plane
|
View from above satellite
|
Ground track
|
The orbit data is extracted from the following two-line orbital elements,
1 15772U 85042D 21059.61515927 .00000073 00000-0 54833-4 0 9991
2 15772 71.1107 1.9329 0033140 101.1524 71.5720 14.21286056853609
Epoch (UTC): | 28 February 2021 14:45:49 |
Eccentricity: | 0.0033140 |
inclination: | 71.1107° |
perigee height: | 797 km |
apogee height: | 845 km |
right ascension of ascending node: | 1.9329° |
argument of perigee: | 101.1524° |
revolutions per day: | 14.21286056 |
mean anomaly at epoch: | 71.5720° |
orbit number at epoch: | 85360 |
The dashed part of the orbit path shows where the satellite is in the earth's shadow,
|
|